[[{"header":{"parameterUnit":"m.s-1","parameterCategory":1,"la1":30.2991,"la2":30.254,"lo1":-89.0895,"lo2":-89.0444,"dy":0.0017,"dx":0.0017,"nx":28,"ny":28,"refTime":"2025-05-31T09:00:00:Z","depth":0,"parameterNumber":2,"parameterNumberName":"U-component_of_WINDS"},"data":[0,0,0,0,0,0,0,0,0,0,0,0,0,0,0,0,0,0,0,0,0,0,0,0,0,0,0,0,0,0,0,0,0,0,0,0,0,0,0,0,0,0,0,0,0,0,0,0,0,0,0,0,0,0,0,0,0,0,0.1131,0.1132,0,0.1204,0.1204,0.1205,0.1242,0.1242,0.1242,0.1242,0.1317,0.1319,0.1321,0,0,0,0,0,0,0,0,0,0,0,0,0,0.1024,0.1026,0.1131,0.1132,0.1133,0.1203,0.1204,0.1205,0.1242,0.1242,0.1242,0.1242,0.1317,0.1319,0.1321,0,0,0,0,0,0,0,0,0,0,0,0,0,0.1081,0.1027,0.1131,0.1159,0.1163,0.1203,0.1204,0.1206,0.1242,0.1242,0.1242,0.1242,0.1316,0.1319,0.1322,0.1339,0,0,0.1331,0.1332,0,0,0,0,0,0,0,0,0.1078,0.1085,0.1154,0.1158,0.1161,0.1214,0.1194,0.125,0.1242,0.1212,0.1242,0.1242,0.1283,0.1288,0.1302,0.1343,0.1346,0.1331,0.1333,0.1334,0.1335,0,0,0,0,0,0,0,0.1074,0.1082,0.116,0.1155,0.116,0.1169,0.1177,0.1205,0.1246,0.1215,0.1217,0.1225,0.1285,0.1299,0.1304,0.1347,0.1331,0.1333,0.1335,0.1336,0.1406,0.1406,0,0,0,0,0,0,0.1065,0.1079,0.1157,0.1162,0.1119,0.1171,0.118,0.1197,0.1246,0.1254,0.1225,0.1227,0.1294,0.1301,0.1307,0.1331,0.1334,0.1337,0.1338,0.1405,0.1406,0.1406,0,0,0,0,0,0,0.1063,0.1072,0.1154,0.1121,0.1132,0.1173,0.1191,0.1198,0.1213,0.1254,0.1262,0.1232,0.1294,0.1303,0.1331,0.1334,0.1338,0.1341,0.1405,0.1405,0.1406,0.1378,0,0,0,0,0,0,0.106,0.1071,0.1078,0.1121,0.1134,0.1177,0.1192,0.12,0.1218,0.122,0.1263,0.127,0.1295,0.1326,0.1334,0.1338,0.1343,0.1405,0.1405,0.1406,0.1379,0.1377,0.1376,0,0,0,0,0,0.1056,0.1067,0.1078,0.1087,0.1143,0.1177,0.1184,0.1213,0.1218,0.1225,0.1252,0.1269,0.1332,0.1329,0.1338,0.1343,0.1405,0.1405,0.1406,0.138,0.1378,0.1376,0,0,0,0,0,0,0.1024,0.1074,0.1086,0.1112,0.114,0.1183,0.1193,0.121,0.1237,0.1238,0.1273,0.1282,0.1307,0.1328,0.1323,0.1362,0.137,0.1372,0.1348,0.1346,0.1344,0.1339,0.1346,0,0,0,0,0,0.102,0.1043,0.1085,0.1104,0.1117,0.1153,0.1168,0.1188,0.1218,0.123,0.1259,0.1288,0.1315,0.1332,0.1358,0.1382,0.1392,0.139,0.1388,0.1387,0.1388,0.1402,0.1402,0.1406,0.1406,0.1406,0,0,0.1012,0.1042,0.1054,0.1098,0.1122,0.1145,0.1163,0.1186,0.1204,0.1234,0.1262,0.1284,0.1319,0.1345,0.1358,0.1363,0.1389,0.1387,0.1385,0.1388,0.1402,0.1402,0.1401,0.1406,0.1406,0.1406,0,0,0.1009,0.1034,0.1053,0.1076,0.1112,0.1136,0.114,0.1181,0.1196,0.1225,0.1248,0.127,0.1314,0.1338,0.1356,0.1362,0.1378,0.137,0.1362,0.1375,0.1374,0.1374,0.1376,0.1377,0.1371,0.1371,0.1371,0,0.0995,0.1031,0.106,0.1083,0.1101,0.1129,0.1148,0.117,0.1212,0.1225,0.123,0.1287,0.1312,0.1344,0.1345,0.1359,0.1365,0.1365,0.1372,0.1372,0.1373,0.1375,0.1376,0.1369,0.137,0.137,0.137,0,0.1011,0.1035,0.1046,0.1086,0.1106,0.1127,0.1159,0.1176,0.1193,0.1216,0.1245,0.1276,0.131,0.1318,0.1336,0.1353,0.1355,0.1365,0.1374,0.137,0.1373,0.1374,0.1368,0.1368,0.1368,0.1369,0,0,0.0991,0.1047,0.105,0.1069,0.111,0.113,0.1151,0.1184,0.1197,0.1226,0.1245,0.1282,0.1292,0.1312,0.1333,0.1344,0.1347,0.1354,0.1355,0.1351,0.1367,0.1359,0.1359,0.1358,0.1358,0.1358,0.1364,0,0.0994,0.1034,0.1061,0.1091,0.1113,0.114,0.1159,0.1187,0.1208,0.1231,0.1255,0.1281,0.1292,0.1305,0.1317,0.1344,0.135,0.1344,0.1376,0.1377,0.1366,0.1361,0.1352,0.1356,0.1365,0.1366,0.1366,0,0.1003,0.1031,0.1062,0.1101,0.1112,0.1128,0.116,0.1181,0.1213,0.1228,0.125,0.1271,0.1295,0.1301,0.1335,0.133,0.1345,0.1359,0.136,0.1365,0.1371,0.1365,0.1358,0.1359,0.1368,0.1368,0.1367,0,0.0985,0.103,0.1055,0.107,0.1116,0.1127,0.1146,0.1178,0.1196,0.1223,0.1235,0.1265,0.1282,0.1305,0.1333,0.1335,0.1364,0.1373,0.1377,0.1376,0.1382,0.1381,0.1378,0.1391,0.1391,0.1391,0.1391,0,0.0986,0.1004,0.1047,0.1062,0.1084,0.1114,0.1135,0.1157,0.1185,0.1205,0.123,0.1248,0.1284,0.1306,0.1329,0.1353,0.136,0.1373,0.1379,0.1371,0.1369,0.1381,0.1382,0.1391,0.1391,0.1391,0.1391,0,0.0969,0.0999,0.1028,0.1069,0.1079,0.1093,0.1128,0.1144,0.1167,0.1192,0.12,0.1236,0.1264,0.1294,0.1332,0.1347,0.137,0.1378,0.1359,0.1363,0.1365,0.1365,0.1369,0.1371,0.1383,0.1383,0.1383,0,0.0968,0.0983,0.1025,0.104,0.1059,0.1083,0.1101,0.1132,0.115,0.1187,0.1198,0.1228,0.1253,0.1296,0.1326,0.1355,0.1364,0.1364,0.1369,0.1361,0.1365,0.1363,0.1365,0.1363,0.1362,0.1362,0.1362,0,0.0962,0.0976,0.1001,0.1031,0.1052,0.1077,0.1103,0.1114,0.115,0.1169,0.1198,0.1217,0.1256,0.1285,0.1318,0.1338,0.1356,0.136,0.1363,0.1355,0.1343,0.1349,0.1355,0.136,0.136,0.136,0.136,0.136,0.0953,0.0967,0.1,0.1027,0.1049,0.1073,0.109,0.1115,0.1139,0.1173,0.119,0.1218,0.125,0.1296,0.1315,0.1338,0.1344,0.1347,0.1348,0.1349,0.1347,0.1339,0.1344,0.1344,0.1344,0.1345,0.1345,0,0.0949,0.0971,0.0995,0.1031,0.1052,0.1067,0.1096,0.1113,0.1138,0.1165,0.119,0.1223,0.1251,0.1283,0.1313,0.1325,0.1334,0.1332,0.1332,0.1336,0.134,0.1335,0.1324,0.1324,0.1324,0.1324,0.1324,0.1324,0.0949,0.0974,0.0991,0.1028,0.105,0.1078,0.1093,0.1115,0.1138,0.1173,0.1197,0.1217,0.1246,0.1279,0.1305,0.1314,0.1324,0.132,0.1331,0.1334,0.1336,0.1337,0.1332,0.1322,0.1322,0.1325,0.1325,0.1325]},{"header":{"parameterUnit":"m.s-1","parameterCategory":1,"la1":30.2991,"la2":30.254,"lo1":-89.0895,"lo2":-89.0444,"dy":0.0017,"dx":0.0017,"nx":28,"ny":28,"refTime":"2025-05-31T09:00:00:Z","depth":0,"parameterNumber":3,"parameterNumberName":"V-component_of_WINDS"},"data":[0,0,0,0,0,0,0,0,0,0,0,0,0,0,0,0,0,0,0,0,0,0,0,0,0,0,0,0,0,0,0,0,0,0,0,0,0,0,0,0,0,0,0,0,0,0,0,0,0,0,0,0,0,0,0,0,0,0,1.9208,1.9209,0,1.9238,1.9239,1.9239,1.9272,1.9273,1.9273,1.9274,1.9302,1.9302,1.9303,0,0,0,0,0,0,0,0,0,0,0,0,0,1.9176,1.9176,1.9208,1.9209,1.9209,1.9238,1.9239,1.9239,1.9272,1.9273,1.9273,1.9274,1.9302,1.9302,1.9303,0,0,0,0,0,0,0,0,0,0,0,0,0,1.9196,1.9176,1.9208,1.9229,1.9231,1.9238,1.9239,1.9239,1.9272,1.9273,1.9274,1.9274,1.9302,1.9302,1.9303,1.9291,0,0,1.9304,1.9304,0,0,0,0,0,0,0,0,1.9195,1.9197,1.9226,1.9228,1.923,1.9252,1.9238,1.9256,1.9272,1.9256,1.9274,1.9275,1.9285,1.9287,1.9291,1.9292,1.9293,1.9304,1.9304,1.9304,1.9305,0,0,0,0,0,0,0,1.9193,1.9196,1.922,1.9226,1.9229,1.9236,1.9239,1.9241,1.9266,1.9258,1.926,1.9264,1.9286,1.929,1.9291,1.9294,1.9304,1.9304,1.9305,1.9305,1.9285,1.9284,0,0,0,0,0,0,1.9189,1.9195,1.9219,1.9221,1.9214,1.9236,1.924,1.9244,1.9266,1.927,1.9263,1.9265,1.9289,1.9291,1.9293,1.9279,1.9304,1.9305,1.9305,1.9286,1.9285,1.9284,0,0,0,0,0,0,1.9189,1.9191,1.9218,1.9209,1.9213,1.9236,1.924,1.9245,1.9249,1.927,1.9274,1.9263,1.929,1.9292,1.9291,1.928,1.9305,1.9306,1.9287,1.9285,1.9284,1.9252,0,0,0,0,0,0,1.9187,1.9191,1.9187,1.9208,1.9213,1.9217,1.924,1.9245,1.925,1.9253,1.9271,1.9275,1.929,1.929,1.9291,1.9281,1.9306,1.9288,1.9286,1.9285,1.9254,1.925,1.9246,0,0,0,0,0,1.9186,1.9177,1.9187,1.919,1.9209,1.9216,1.9219,1.9238,1.9249,1.9245,1.9258,1.9274,1.9281,1.9289,1.9291,1.9281,1.9288,1.9286,1.9285,1.9256,1.9251,1.9246,0,0,0,0,0,0,1.9154,1.918,1.9192,1.9189,1.92,1.9222,1.9217,1.9232,1.9239,1.9241,1.9264,1.9268,1.9263,1.9272,1.9281,1.927,1.9287,1.9285,1.9264,1.926,1.9256,1.9253,1.9306,0,0,0,0,0,1.9147,1.9151,1.9173,1.9169,1.9174,1.9194,1.9198,1.9212,1.9223,1.9228,1.9241,1.9251,1.9256,1.9258,1.9264,1.9255,1.9259,1.9249,1.9245,1.9242,1.924,1.9235,1.923,1.9278,1.9278,1.9278,0,0,1.9131,1.9146,1.9147,1.9162,1.9173,1.9175,1.9198,1.92,1.9202,1.9228,1.9228,1.9237,1.925,1.9245,1.9243,1.9252,1.9228,1.924,1.9237,1.9237,1.9233,1.9228,1.9224,1.9277,1.9277,1.9277,0,0,1.9105,1.9117,1.9114,1.9123,1.9138,1.9152,1.9151,1.917,1.9178,1.9178,1.9197,1.9199,1.9206,1.9214,1.9219,1.9193,1.9207,1.9194,1.9173,1.9168,1.9164,1.9161,1.915,1.9147,1.9193,1.9192,1.9192,0,1.9084,1.9089,1.911,1.9111,1.9116,1.914,1.9136,1.9144,1.916,1.9162,1.9172,1.9181,1.9192,1.9188,1.9181,1.9185,1.9183,1.9192,1.9163,1.916,1.9157,1.9148,1.9144,1.9191,1.9191,1.9191,1.9191,0,1.9062,1.9065,1.906,1.9075,1.908,1.9078,1.9098,1.91,1.9112,1.9124,1.9123,1.9136,1.9144,1.9144,1.9156,1.9141,1.9146,1.9159,1.9177,1.9151,1.9142,1.9138,1.9188,1.9189,1.9189,1.919,0,0,1.9016,1.9042,1.904,1.9046,1.9063,1.9066,1.9064,1.9072,1.9073,1.9082,1.908,1.9086,1.9097,1.9103,1.9116,1.9112,1.9088,1.9125,1.9126,1.9117,1.9071,1.906,1.9055,1.9098,1.9097,1.9097,1.9069,0,1.8992,1.8992,1.901,1.9004,1.9006,1.9028,1.9027,1.9036,1.9047,1.905,1.9062,1.9064,1.9081,1.9084,1.908,1.9092,1.9079,1.9094,1.9095,1.9095,1.9091,1.9051,1.904,1.9013,1.9066,1.9065,1.9065,0,1.8964,1.8972,1.8966,1.8982,1.8984,1.8982,1.899,1.8993,1.9003,1.9011,1.9017,1.9032,1.903,1.9046,1.9043,1.9053,1.9054,1.906,1.9059,1.906,1.9078,1.9049,1.9005,1.9001,1.906,1.906,1.9061,0,1.893,1.8939,1.8936,1.8941,1.896,1.8958,1.8966,1.8977,1.898,1.8987,1.8989,1.8995,1.8998,1.9001,1.9017,1.9028,1.9011,1.903,1.9017,1.9016,1.9012,1.9012,1.8966,1.9014,1.9014,1.9014,1.9014,0,1.89,1.8896,1.8921,1.8919,1.8914,1.8934,1.8928,1.8938,1.8947,1.8947,1.8966,1.8965,1.8987,1.8987,1.8999,1.8994,1.8995,1.9001,1.9004,1.8999,1.8998,1.8999,1.9001,1.9013,1.9013,1.9013,1.9014,0,1.8861,1.8878,1.8877,1.8895,1.8899,1.8894,1.8909,1.8907,1.8919,1.8918,1.8919,1.8936,1.8938,1.8954,1.896,1.8968,1.8957,1.8964,1.8954,1.8956,1.8941,1.8942,1.8895,1.8889,1.8941,1.894,1.894,0,1.8841,1.8838,1.8855,1.8857,1.8863,1.8865,1.8868,1.8887,1.8889,1.89,1.8897,1.89,1.8904,1.8906,1.8918,1.8922,1.8929,1.8912,1.893,1.8924,1.8927,1.8927,1.8926,1.8908,1.8907,1.8907,1.8907,0,1.8803,1.8811,1.8815,1.8822,1.8825,1.883,1.8837,1.8837,1.8858,1.8859,1.8861,1.8864,1.8869,1.8871,1.8877,1.8884,1.8898,1.8901,1.8898,1.8892,1.8885,1.8888,1.8942,1.8902,1.8902,1.8903,1.8903,1.8903,1.8772,1.877,1.8781,1.8784,1.8791,1.8797,1.8796,1.8807,1.8809,1.8815,1.8826,1.8826,1.8835,1.8845,1.885,1.8849,1.8858,1.8854,1.8853,1.8851,1.8848,1.8886,1.8851,1.8851,1.8851,1.8851,1.8851,0,1.8734,1.8742,1.8745,1.8754,1.8756,1.8769,1.8777,1.8778,1.8778,1.8785,1.8788,1.879,1.8792,1.8805,1.8808,1.8805,1.8811,1.8805,1.8805,1.8806,1.884,1.8842,1.88,1.88,1.88,1.88,1.88,1.88,1.8715,1.8711,1.872,1.8719,1.8727,1.8727,1.873,1.8735,1.8741,1.8742,1.8744,1.8752,1.8761,1.8765,1.8767,1.877,1.877,1.8761,1.8767,1.8799,1.8804,1.8808,1.881,1.8761,1.8761,1.8732,1.8732,1.8732]}]]